Location: Unspecified
(48.9957°N, 0.0000°E)
Time: 20:49:36
(UTC+00:00)

NOAA 15 - Visible Passes

Search period start: 04 April 2026 00:00
Search period end: 14 April 2026 00:00
Orbit: 795 x 808 km, 98.5° (Epoch: 29 March)

Date Brightness Start Highest point End Pass type
(mag) Time Alt. Az. Time Alt. Az. Time Alt. Az.
5 Apr 7.8 20:09:50 10° W 20:11:13 11° W 20:12:36 10° WNW visible
6 Apr 7.4 19:40:56 10° SW 19:44:34 19° W 19:48:15 10° NW visible
7 Apr 6.8 19:13:27 10° SSW 19:18:03 30° W 19:22:41 10° NNW visible
9 Apr 7.7 20:03:50 10° WSW 20:05:54 12° W 20:07:59 10° WNW visible
10 Apr 7.3 19:35:25 10° SW 19:39:17 20° W 19:43:11 10° NW visible
11 Apr 6.6 19:08:03 10° SSW 19:12:47 33° W 19:17:32 10° NNW visible
13 Apr 7.6 19:58:01 10° WSW 20:00:35 14° W 20:03:10 10° WNW visible
